{"data":{"norad_id":63418,"epoch":"2026-05-24T23:20:46.728384Z","epoch_age_seconds":80563,"freshness":"FRESH","line1":"1 63418U 25065V   26144.97276306  .00019395  00000+0  71261-3 0  9993","line2":"2 63418  43.0013  36.4573 0001498 277.3926  82.6755 15.27573545 64503","mean_motion":15.27573545,"eccentricity":0.0001498,"inclination_deg":43.0013,"raan_deg":36.4573,"arg_perigee_deg":277.3926,"mean_anomaly_deg":82.6755,"bstar":0.00071261,"rev_number":6450,"period_min":94.267147052484,"perigee_km":482.04061612727,"apogee_km":484.09623327251,"semimajor_km":6861.2054246999,"source":"CELESTRAK","updated_at":"2026-05-25T13:38:19.972783Z"}}